INTELSAT 1R (IS-1R)

Last updated on Sun Feb 09 2025 00:02:39 GMT+0000 (Coordinated Universal Time)

1 26608U 00072A 25039.27277685 -.00000237 00000+0 00000+0 0 9995 2 26608 6.8424 70.1763 0010036 255.0686 231.9875 0.98971553 36342

Satellite not in orbit

INTELSAT 1R (IS-1R)